User: anonymous   Login
Location: Charleston
(38.3500°N, 81.6330°W)
Time: 06:04:29
(UTC-05:00)
Language:

Cosmos 1812 Rocket - Orbit

View from above orbital plane
View from above orbital plane
View from above satellite
View from above satellite

Ground track
Ground track

The orbit data is extracted from the following two-line orbital elements,

1 17296U 87003B   14329.64618317  .00000466  00000-0  54575-4 0  8072
2 17296 082.5291 178.6175 0020433 064.1047 352.2595 14.82766586504613
Epoch (UTC): 25 November 2014 15:30:30
Eccentricity: 0.0020433
inclination: 82.5291°
perigee height: 606 km
apogee height: 635 km
right ascension of ascending node: 178.6175°
argument of perigee: 64.1047°
revolutions per day: 14.82766586
mean anomaly at epoch: 352.2595°
orbit number at epoch: 50461

The dashed part of the orbit path shows where the satellite is in the earth's shadow,  

DLR